User: anonymous   Login
Location: Unspecified
(0.0000°N, 0.0000°E)
Time: 22:20:40
(UTC+00:00)
Language:

DMSP F15 (USA 147) - Orbit

View from above orbital plane
View from above orbital plane
View from above satellite
View from above satellite

Ground track
Ground track

The orbit data is extracted from the following two-line orbital elements,

1 25991U 99067A   17075.10009930 0.00000000  00000-0  00000-0 0    02
2 25991  98.7963  33.5823 0008996 273.5447  86.4552 14.16596107    08
Epoch (UTC): 16 March 2017 02:24:08
Eccentricity: 0.0008996
inclination: 98.7963°
perigee height: 830 km
apogee height: 843 km
right ascension of ascending node: 33.5823°
argument of perigee: 273.5447°
revolutions per day: 14.16596107
mean anomaly at epoch: 86.4552°
orbit number at epoch: 0

The dashed part of the orbit path shows where the satellite is in the earth's shadow,  

DLR